Temperature
21 21 21 21 21 21 20 20 20 20 20 20 20 20 20 20 20 20 19 19 19 19 19 19 19 19 19 19 19 19 19 18 18 18 18 18 18 18 18 18 18 18 18
21 21 21 21 21 21 20 20 20 20 20 20 20 20 20 20 20 19 19 19 19 19 19 19 19 19 19 19 18 18 18 18 18 18 18 18 18 18 18 18 18 18 18
21 21 21 21 21 21 20 20 20 20 20 20 20 20 20 20 20 19 19 19 19 19 19 19 19 19 19 18 18 18 18 18 18 18 18 18 18 18 18 18 18 18 18
21 21 21 21 21 20 20 20 20 20 20 20 20 20 20 20 20 19 19 19 19 19 19 19 19 19 19 19 18 18 18 18 18 18 18 18 18 18 18 18 18 18 18
21 21 21 21 21 21 20 20 20 20 20 20 20 20 20 20 19 19 19 19 19 19 19 19 19 19 19 18 18 18 18 18 18 18 18 18 18 18 18 18 18 18 18
21 21 21 21 21 21 20 21 20 20 20 20 20 20 20 20 19 19 19 19 19 19 19 19 19 19 19 18 18 18 18 18 18 18 18 18 18 18 18 18 18 18 18
22 21 21 21 21 21 21 20 20 20 20 20 20 20 20 19 19 19 19 19 19 19 19 19 19 19 18 18 18 18 18 18 18 18 18 18 18 18 18 18 18 18 18
22 21 21 21 21 21 21 20 20 20 20 20 20 20 20 19 19 19 19 19 19 19 19 19 19 19 18 18 18 18 18 18 18 18 18 18 18 18 18 18 18 18 18
22 21 21 21 21 21 21 20 20 20 20 20 20 20 19 19 19 19 19 19 19 19 19 19 19 19 18 18 18 18 18 18 18 18 18 18 18 18 18 18 18 18 18
21 21 21 21 21 21 20 20 20 20 20 20 20 20 19 19 19 19 19 19 19 19 19 19 19 19 19 18 18 18 18 18 18 18 18 18 18 18 18 18 18 18 18
21 21 21 21 21 21 20 20 20 20 20 20 20 19 19 19 19 19 19 19 19 19 19 19 19 19 19 18 18 18 18 18 18 18 18 18 18 18 18 18 18 18 18
21 21 21 21 21 21 20 20 20 20 20 20 20 19 19 19 19 19 19 19 19 19 19 19 19 19 18 18 18 18 18 18 18 18 18 18 18 18 18 18 18 18 18
21 21 21 21 21 21 21 20 20 20 20 20 19 19 19 19 19 19 19 19 19 19 19 19 19 19 18 18 18 18 18 18 18 18 18 18 18 18 18 18 18 18 18
21 21 21 21 21 21 21 20 20 20 20 19 19 19 19 19 19 19 19 19 19 19 19 19 19 19 18 18 18 18 18 18 18 18 18 18 18 18 18 18 18 18 17
22 21 21 21 21 21 21 20 20 20 20 20 19 19 19 19 19 19 19 19 19 19 19 19 19 19 18 18 18 18 18 18 18 18 18 18 18 18 18 18 18 18 17
22 22 21 21 21 21 21 20 20 20 20 20 19 19 19 19 19 19 19 19 19 19 19 19 19 19 18 18 18 18 18 18 18 18 18 18 18 18 18 18 18 18 17
22 22 21 21 21 21 20 20 20 20 20 20 19 19 19 19 19 19 19 19 19 19 19 18 18 18 18 18 18 18 18 18 18 18 18 18 18 18 18 18 18 17 17
22 22 21 21 21 21 20 20 20 20 20 20 19 19 19 19 19 19 19 19 19 18 18 18 18 18 18 18 18 18 18 18 18 18 18 18 18 18 18 18 18 17 17
22 22 22 21 21 21 20 20 20 20 20 20 19 19 19 19 19 19 19 19 19 18 18 18 18 18 18 18 18 18 18 18 18 18 18 18 18 18 18 18 18 17 17
22 22 22 21 21 21 20 20 20 20 19 19 19 19 19 19 19 19 19 19 18 18 18 18 18 18 18 18 18 18 18 18 18 18 18 18 18 17 18 18 18 17 17
22 22 21 21 21 21 20 20 20 20 19 19 19 19 19 19 19 19 19 18 18 18 18 18 18 18 18 18 18 18 18 18 18 18 18 18 18 18 18 18 18 18 17
22 22 22 21 21 21 21 20 20 20 19 19 19 19 19 19 19 19 19 19 18 18 18 18 18 18 18 18 18 18 17 18 18 18 18 18 18 18 18 18 18 17 17
22 22 22 21 21 21 20 20 20 20 19 19 19 19 19 19 19 19 19 19 19 18 18 18 18 18 18 18 18 18 17 17 17 18 18 18 18 18 18 17 17 17 17
23 22 22 22 21 21 20 20 20 20 20 19 19 19 19 19 19 19 19 19 19 19 18 18 18 18 18 18 18 18 18 17 17 17 17 17 17 17 17 17 17 17 17
23 22 22 21 21 21 21 20 20 20 20 20 19 19 19 19 19 19 19 19 19 19 19 18 18 18 18 18 18 18 18 18 17 17 17 17 17 17 17 17 17 17 17
22 22 22 21 21 21 21 20 20 20 20 20 19 19 19 19 19 19 19 19 19 19 19 19 18 18 18 18 18 18 18 17 17 17 17 17 17 17 17 17 17 16 16
Wind_Speed
5 8 14 15 15 16 16 16 16 16 16 16 16 16 16 16 16 16 16 15 15 14 14 13 12 12 12 12 12 12 12 12 12 12 12 11 11 11 11 11 11 10 12
9 11 15 15 15 16 16 16 16 16 16 15 15 15 15 15 15 15 15 14 13 13 13 12 12 11 11 11 11 11 11 11 12 11 10 10 10 10 10 11 11 10 12
11 12 15 16 16 16 16 16 15 15 15 15 14 14 14 14 14 14 14 13 13 12 12 11 11 10 10 10 10 10 9 10 10 10 9 8 8 9 10 11 12 12 12
12 12 14 16 16 16 15 15 15 15 15 14 14 14 14 14 13 13 13 13 12 12 11 11 10 10 9 9 9 9 9 9 9 8 7 7 7 9 11 12 12 12 12
11 12 15 17 16 16 15 15 15 15 15 14 14 14 13 13 13 13 13 12 11 11 11 10 10 9 8 8 8 8 8 8 8 7 6 6 7 8 11 12 12 12 12
11 12 15 17 17 16 14 14 16 15 15 15 14 13 13 12 12 12 12 11 11 10 10 9 9 8 7 7 7 7 7 7 6 6 6 7 7 9 12 12 12 12 12
11 11 15 17 17 16 15 15 16 16 15 14 13 13 12 12 11 11 11 10 10 10 9 8 8 7 6 6 6 6 6 6 6 6 7 7 9 10 12 13 13 12 12
13 11 14 17 16 16 15 15 16 16 15 14 13 12 11 10 10 10 10 9 9 9 8 7 7 6 5 5 5 5 5 5 6 6 7 8 10 11 12 13 14 13 13
11 10 9 12 14 15 15 14 15 15 14 13 12 11 10 10 10 10 9 9 9 8 8 7 6 5 4 4 4 4 5 6 5 5 7 7 10 12 12 13 14 14 13
10 9 8 8 9 10 12 14 14 14 13 12 11 10 9 9 9 9 8 9 9 9 8 7 5 5 4 3 3 3 5 5 4 5 6 8 11 13 13 13 13 13 13
10 8 8 7 7 8 10 11 12 12 11 11 10 10 8 6 6 6 7 8 8 8 7 6 6 5 4 3 3 3 3 4 4 4 6 8 11 12 13 13 12 13 13
11 9 8 7 7 7 8 8 8 8 8 7 7 7 6 5 4 5 6 7 7 7 6 6 6 5 4 3 3 3 2 3 3 3 5 9 12 12 13 13 13 12 12
11 10 8 8 8 7 5 6 5 5 5 6 7 6 6 5 3 3 3 4 4 5 4 4 4 3 2 2 2 3 3 3 3 4 5 10 12 13 13 13 13 12 12
11 10 9 9 8 7 6 5 5 4 4 4 6 7 5 3 2 2 2 3 3 3 3 2 2 2 2 3 3 3 3 3 3 3 5 9 11 12 12 13 13 12 12
11 10 9 9 8 7 6 5 5 4 5 5 6 6 7 4 3 2 2 2 3 3 3 2 2 2 1 2 2 3 3 4 4 5 5 8 11 12 12 12 13 12 12
11 10 9 9 7 7 5 5 4 4 5 6 6 7 7 6 4 3 2 1 1 2 3 3 3 2 2 1 1 3 3 4 5 6 6 7 9 11 12 12 12 12 12
11 10 9 9 7 7 6 5 5 5 5 4 5 7 7 6 5 4 3 1 1 1 2 2 2 1 1 1 1 2 2 3 4 5 6 6 7 9 10 11 12 12 13
11 10 9 9 8 7 6 5 3 4 5 4 6 6 6 6 6 4 3 2 2 1 1 1 1 1 0 0 0 1 1 2 3 4 5 5 6 6 7 10 11 11 12
11 11 9 8 8 7 6 4 4 4 4 4 5 5 6 6 6 4 2 1 2 1 1 1 1 1 1 0 1 1 1 2 3 3 4 4 5 6 6 7 9 11 11
10 10 9 9 8 7 5 4 3 3 3 3 4 4 6 6 6 4 2 2 2 2 1 1 1 1 1 1 0 1 1 2 2 3 3 3 4 5 6 6 6 7 8
9 9 9 9 7 6 5 4 4 3 2 2 2 5 6 6 5 4 2 2 2 2 1 1 1 1 0 1 2 2 3 1 1 2 2 2 2 3 4 5 5 5 5
11 10 10 9 8 7 5 4 4 4 2 2 2 3 5 5 5 4 3 2 2 2 1 1 1 1 0 1 2 1 2 3 2 1 1 2 2 2 2 4 5 5 5
12 12 11 9 8 7 6 4 3 3 2 1 2 2 2 5 5 4 3 3 2 2 2 1 2 2 1 1 1 3 2 1 2 2 1 1 1 1 2 2 4 4 5
13 11 10 9 8 8 7 7 6 5 4 3 3 3 2 3 4 4 3 3 3 2 2 2 2 2 2 1 1 0 2 3 2 1 2 1 1 1 2 2 3 3 4
12 11 10 9 8 8 8 8 7 5 4 3 3 3 3 2 2 3 3 3 3 2 2 2 2 2 2 2 1 0 0 0 1 2 2 2 1 1 1 2 2 2 3
10 10 9 9 8 7 8 7 8 7 6 4 4 4 3 2 1 2 3 2 2 2 2 2 2 2 2 2 1 1 2 2 2 2 2 2 1 2 1 1 1 2 3
Wind_Direction
156 154 140 132 128 125 124 122 121 120 118 117 117 117 118 120 122 125 127 128 129 130 131 133 134 135 136 139 144 146 148 145 144 145 148 148 147 145 143 141 142 138 137
151 150 140 134 130 130 129 128 126 125 124 123 122 122 123 125 127 129 131 131 131 132 132 133 134 135 138 141 144 147 151 152 151 152 154 152 151 150 149 148 150 145 146
144 146 140 137 134 133 133 133 133 131 130 129 127 126 127 128 131 132 132 134 134 135 136 135 135 136 139 145 148 151 154 157 157 158 158 154 153 157 156 154 154 149 148
144 144 142 140 138 137 136 137 138 137 135 133 132 132 131 131 133 134 135 136 137 138 139 139 139 140 144 149 154 157 160 165 167 165 158 156 159 163 163 159 157 152 151
136 141 143 142 140 140 140 141 142 141 139 137 136 136 136 136 137 138 140 141 142 143 144 144 144 146 150 154 158 164 169 170 174 173 163 163 162 168 167 163 160 157 156
137 141 143 142 141 140 139 141 143 141 139 137 138 139 139 140 143 145 146 146 147 148 150 150 152 156 158 161 163 169 173 175 171 162 162 168 172 176 172 170 167 164 162
139 141 145 144 143 141 139 138 142 140 139 139 140 143 143 144 146 150 152 151 152 154 155 155 158 162 167 170 169 171 175 178 166 162 169 178 182 182 179 175 173 169 167
142 142 147 148 146 143 140 136 140 141 142 142 143 145 147 150 153 156 159 158 157 157 159 159 158 163 171 177 179 179 183 184 170 170 173 183 186 186 181 179 176 175 175
140 141 144 150 150 148 144 141 143 145 145 146 147 149 151 155 161 165 167 167 167 164 164 166 164 163 170 182 193 193 183 177 175 177 186 187 190 188 185 180 180 180 180
138 142 143 148 150 150 149 147 149 150 149 149 150 150 152 156 164 169 170 173 172 170 171 171 171 172 178 191 197 193 183 175 172 183 192 194 192 190 188 186 185 185 183
145 149 149 149 149 152 152 150 153 154 153 152 154 153 151 154 161 166 173 179 179 178 176 178 185 191 199 208 212 202 189 182 184 182 191 194 189 191 190 188 187 187 184
154 160 157 155 158 159 159 150 154 154 150 151 153 154 152 153 163 165 175 185 187 188 188 193 200 209 216 226 233 222 203 190 194 199 198 192 189 193 192 190 189 188 187
157 156 158 161 163 163 153 151 155 153 151 155 160 163 164 155 160 161 173 184 192 194 195 199 211 216 215 215 230 210 194 180 197 207 200 194 192 194 191 190 190 191 192
150 154 153 156 156 158 153 155 158 156 158 158 165 169 158 149 149 165 182 181 175 180 182 192 196 207 222 216 204 187 180 191 182 194 201 195 191 188 189 190 193 194 195
151 153 156 153 155 155 147 154 151 156 157 154 152 156 150 148 155 164 180 175 172 174 180 180 183 182 214 217 197 183 185 196 189 188 195 195 196 192 193 196 199 200 202
153 155 155 150 152 145 143 142 143 153 154 151 158 163 159 159 162 154 157 173 194 191 185 184 186 191 211 196 206 187 178 177 182 179 184 191 195 195 200 202 202 204 208
154 153 151 149 144 139 138 145 144 155 151 153 157 160 158 158 154 149 151 154 208 191 169 156 156 163 165 162 196 205 185 177 173 180 183 190 197 200 205 207 208 210 211
152 148 153 152 142 138 134 137 137 148 147 152 155 153 149 154 153 147 152 161 171 158 134 131 132 115 101 142 211 235 216 193 184 187 186 191 194 200 205 206 210 213 214
153 150 148 145 144 143 136 132 131 134 137 146 147 147 150 155 155 149 156 166 145 129 117 145 138 147 133 118 223 243 230 208 208 193 191 191 194 199 203 210 212 211 215
148 148 149 147 149 145 134 119 111 111 119 136 143 150 152 156 151 142 139 142 137 122 114 116 143 132 160 219 265 330 267 225 210 207 203 195 196 200 201 204 209 214 221
150 150 154 154 158 151 144 142 141 148 147 149 160 155 155 157 148 137 148 136 134 137 174 153 137 99 41 84 70 13 359 336 242 216 193 184 186 183 175 187 191 191 203
163 162 160 160 163 163 162 158 155 156 162 165 162 152 155 153 152 155 151 145 145 141 137 126 120 124 219 121 122 84 7 357 350 294 178 173 182 173 173 187 183 184 195
170 171 169 168 164 166 161 142 127 102 81 101 137 162 169 154 152 151 152 151 148 146 164 180 151 151 201 280 152 142 147 223 308 334 318 160 176 188 212 195 187 195 198
176 171 164 168 169 169 161 157 157 161 174 195 181 177 176 159 158 162 158 157 157 153 167 195 165 165 155 219 292 233 179 168 166 282 322 313 235 214 223 209 190 193 192
173 169 167 165 171 170 164 164 165 171 181 178 164 165 174 185 176 172 167 161 160 164 170 172 159 156 164 170 181 199 128 99 144 165 245 293 323 287 237 217 189 190 201
171 168 167 166 175 173 169 170 172 172 170 167 173 176 178 178 196 192 173 167 172 171 171 178 177 162 174 162 163 158 162 173 192 175 204 218 243 277 255 235 217 211 216
Height
1510 1510 1511 1511 1512 1512 1513 1514 1516 1517 1518 1519 1520 1522 1523 1524 1525 1527 1528 1529 1530 1531 1532 1533 1534 1535 1536 1538 1539 1540 1541 1543 1543 1545 1546 1547 1548 1549 1550 1551 1552 1553 1554
1509 1510 1511 1512 1513 1513 1514 1515 1516 1518 1519 1520 1521 1523 1524 1525 1526 1527 1529 1530 1531 1532 1533 1534 1535 1536 1537 1538 1539 1541 1542 1543 1544 1545 1546 1547 1548 1549 1550 1551 1552 1553 1554
1509 1510 1511 1512 1513 1514 1514 1515 1517 1518 1519 1521 1522 1523 1524 1526 1527 1528 1529 1530 1531 1532 1533 1534 1535 1536 1537 1539 1540 1541 1542 1543 1544 1545 1546 1547 1548 1549 1550 1551 1552 1553 1554
1509 1510 1511 1512 1513 1514 1514 1515 1516 1518 1519 1521 1523 1524 1525 1526 1527 1528 1529 1531 1532 1533 1534 1535 1536 1537 1538 1539 1540 1541 1542 1543 1544 1545 1546 1547 1548 1549 1549 1551 1552 1552 1553
1510 1511 1512 1513 1513 1513 1513 1514 1515 1517 1519 1521 1523 1524 1525 1527 1528 1529 1530 1531 1532 1533 1534 1535 1536 1537 1538 1539 1540 1541 1542 1542 1543 1544 1545 1546 1547 1548 1549 1550 1551 1552 1553
1510 1511 1512 1513 1513 1513 1512 1510 1513 1516 1519 1521 1523 1525 1526 1527 1528 1530 1530 1531 1533 1534 1535 1536 1536 1538 1538 1539 1540 1541 1542 1542 1543 1544 1545 1546 1547 1548 1549 1550 1551 1552 1553
1511 1513 1514 1514 1515 1515 1513 1510 1512 1517 1520 1522 1524 1526 1527 1528 1529 1530 1531 1532 1533 1534 1535 1536 1537 1538 1539 1539 1540 1541 1541 1542 1543 1544 1544 1545 1546 1547 1548 1549 1551 1552 1553
1513 1514 1515 1516 1517 1517 1516 1514 1515 1519 1522 1524 1525 1526 1528 1529 1530 1531 1532 1533 1534 1534 1535 1536 1537 1538 1539 1539 1540 1540 1541 1542 1542 1543 1544 1544 1545 1546 1547 1549 1550 1551 1552
1515 1516 1517 1518 1519 1519 1519 1519 1520 1522 1524 1525 1527 1528 1529 1530 1531 1532 1532 1533 1534 1535 1536 1537 1537 1538 1539 1539 1540 1540 1541 1542 1542 1543 1543 1544 1544 1545 1547 1548 1549 1550 1551
1517 1518 1519 1520 1520 1521 1521 1522 1523 1525 1526 1527 1528 1529 1529 1530 1531 1532 1533 1534 1535 1535 1536 1537 1538 1538 1539 1539 1540 1540 1541 1541 1542 1542 1542 1543 1543 1545 1546 1547 1548 1549 1550
1518 1519 1520 1521 1522 1522 1523 1524 1525 1526 1527 1528 1529 1530 1530 1531 1532 1533 1534 1534 1535 1536 1536 1537 1538 1538 1539 1539 1540 1540 1540 1541 1541 1542 1542 1542 1543 1544 1545 1546 1547 1548 1549
1518 1520 1521 1522 1523 1523 1524 1525 1526 1527 1528 1529 1529 1530 1531 1532 1532 1533 1534 1535 1535 1536 1536 1537 1538 1538 1539 1539 1540 1540 1540 1540 1541 1541 1542 1542 1542 1543 1544 1545 1546 1547 1548
1518 1520 1521 1522 1523 1524 1525 1526 1527 1528 1528 1529 1530 1531 1532 1532 1533 1534 1534 1535 1535 1536 1536 1537 1537 1538 1539 1539 1539 1539 1540 1540 1541 1541 1541 1542 1542 1543 1543 1544 1545 1546 1547
1519 1520 1521 1522 1524 1525 1526 1526 1527 1528 1528 1529 1531 1532 1532 1532 1533 1534 1535 1535 1536 1536 1537 1537 1537 1538 1538 1538 1539 1539 1540 1540 1540 1541 1541 1541 1542 1542 1543 1544 1545 1545 1546
1518 1520 1521 1523 1524 1525 1526 1527 1528 1528 1529 1530 1531 1532 1533 1533 1534 1534 1535 1536 1536 1537 1537 1537 1537 1537 1538 1538 1538 1539 1539 1540 1540 1540 1540 1541 1541 1542 1543 1543 1544 1544 1545
1518 1519 1521 1522 1524 1525 1526 1527 1528 1529 1530 1531 1532 1532 1533 1534 1534 1535 1536 1536 1536 1537 1537 1537 1537 1537 1538 1538 1538 1538 1538 1539 1539 1539 1540 1540 1540 1541 1542 1542 1542 1543 1543
1517 1519 1520 1522 1523 1525 1526 1527 1528 1529 1530 1531 1532 1533 1534 1534 1535 1536 1536 1536 1536 1537 1537 1537 1537 1537 1537 1537 1537 1537 1537 1537 1538 1538 1539 1539 1539 1540 1540 1541 1541 1541 1542
1517 1518 1520 1522 1523 1524 1526 1527 1528 1530 1530 1531 1532 1533 1534 1534 1535 1535 1536 1536 1536 1537 1537 1537 1537 1537 1537 1536 1536 1536 1536 1536 1537 1537 1537 1538 1538 1539 1539 1539 1540 1540 1540
1516 1518 1519 1521 1523 1524 1526 1527 1529 1530 1530 1531 1532 1533 1533 1534 1535 1535 1536 1536 1536 1537 1537 1537 1537 1537 1536 1536 1535 1535 1535 1535 1535 1536 1536 1537 1537 1538 1538 1538 1538 1539 1539
1516 1518 1519 1521 1522 1524 1526 1527 1528 1529 1530 1531 1532 1533 1534 1534 1535 1535 1535 1536 1536 1536 1536 1536 1537 1536 1536 1535 1535 1534 1534 1534 1534 1535 1535 1536 1536 1536 1537 1537 1537 1537 1538
1515 1517 1518 1520 1522 1523 1524 1526 1527 1528 1529 1531 1532 1533 1534 1534 1534 1535 1535 1535 1536 1536 1536 1536 1536 1536 1535 1535 1534 1534 1534 1534 1534 1534 1535 1535 1535 1536 1536 1536 1536 1536 1536
1513 1515 1517 1518 1520 1522 1524 1525 1527 1528 1529 1530 1531 1532 1533 1533 1534 1534 1534 1535 1535 1535 1535 1536 1536 1535 1535 1535 1534 1533 1533 1535 1534 1535 1535 1535 1535 1535 1535 1535 1535 1535 1535
1511 1513 1515 1517 1519 1521 1523 1525 1526 1527 1528 1529 1530 1531 1532 1533 1533 1534 1534 1534 1534 1535 1535 1535 1535 1535 1534 1534 1534 1534 1533 1533 1534 1534 1534 1534 1534 1534 1534 1534 1534 1534 1534
1509 1511 1514 1516 1517 1519 1521 1523 1524 1525 1527 1528 1529 1530 1531 1532 1532 1533 1533 1533 1534 1534 1534 1534 1534 1534 1534 1533 1533 1533 1533 1533 1533 1533 1534 1534 1534 1533 1533 1533 1533 1532 1532
1508 1510 1512 1514 1516 1518 1519 1521 1523 1525 1526 1528 1529 1529 1530 1531 1531 1532 1532 1532 1533 1533 1533 1533 1533 1533 1533 1532 1532 1532 1532 1532 1532 1532 1531 1532 1532 1532 1532 1532 1531 1531 1530
1506 1508 1510 1513 1515 1516 1518 1520 1522 1523 1525 1526 1527 1528 1528 1529 1530 1531 1531 1531 1531 1531 1531 1532 1532 1531 1531 1531 1531 1531 1531 1531 1530 1530 1530 1529 1530 1530 1531 1530 1529 1529 1529